Weather History for Eufaula, AL

Change the Weather History Date:

Saturday, September 22, 2012

  Actual Average (KLSF) Record (KLSF)
Temperature  
Mean Temperature 76 °F -  
Max Temperature 89 °F 81 °F 95 °F (2010)
Min Temperature 63 °F 61 °F 53 °F (1999)
Cooling Degree Days 11    
Growing Degree Days 26 (Base 50)    
Moisture  
Dew Point 65 °F    
Average Humidity 77    
Maximum Humidity 93    
Minimum Humidity 45    
Precipitation  
Precipitation 0.00 in - - ()
Sea Level Pressure  
Sea Level Pressure 30.03 in    
Wind  
Wind Speed 1 mph (West)    
Max Wind Speed 7 mph    
Max Gust Speed -    
Visibility 8 miles    
Events Rain    
Averages and records for this station are not official NWS values.
T = Trace of Precipitation, MM = Missing Value Source: NWS Daily Summary

Daily Weather History Graph

Daily Weather History Graph

Search for Another Location

Airport:

Trip Planner

Search our weather history database for the weather conditions in past years. The results will help you decide how hot, cold, wet, or windy it might be!

Date:

Astronomy

Sep. 22, 2012 Rise Set
Actual Time 6:29 AM CDT 6:36 PM CDT
Civil Twilight 6:04 AM CDT 7:00 PM CDT
Nautical Twilight 5:36 AM CDT 7:29 PM CDT
Astronomical Twilight 5:07 AM CDT 7:57 PM CDT
Moon 1:25 PM CDT (9/22) No Moon Set
Length of Visible Light 12h 56m
Length of Day
12h 07m
Waxing Crescent, 49% of the Moon is Illuminated
Sep 22
Waxing Crescent
Sep 22
First Quarter
Sep 29
Full
Oct 8
Last Quarter
Oct 15
New

Hourly Weather History & Observations

Time (CDT) Temp. Heat Index Dew Point Humidity Pressure Visibility Wind Dir Wind Speed Gust Speed Precip Events Conditions
12:58 AM 66.0 °F - 64.0 °F 93% 30.01 in 9.0 mi Calm Calm - N/A   Clear
1:58 AM 64.9 °F - 63.0 °F 93% 30.01 in 7.0 mi Calm Calm - N/A   Clear
2:58 AM 64.0 °F - 62.1 °F 93% 30.01 in 7.0 mi Calm Calm - N/A   Clear
3:58 AM 64.0 °F - 62.1 °F 93% 30.01 in 7.0 mi Calm Calm - N/A   Clear
4:58 AM 63.0 °F - 61.0 °F 93% 30.02 in 6.0 mi Calm Calm - N/A   Clear
5:04 AM 63.0 °F - 61.0 °F 93% 30.03 in 5.0 mi Calm Calm - N/A   Partly Cloudy
5:39 AM 64.0 °F - 61.0 °F 90% 30.04 in 3.0 mi Calm Calm - N/A   Mostly Cloudy
5:46 AM 64.0 °F - 62.1 °F 93% 30.04 in 3.0 mi Calm Calm - N/A   Scattered Clouds
5:58 AM 63.0 °F - 61.0 °F 93% 30.04 in 5.0 mi Calm Calm - N/A   Scattered Clouds
6:58 AM 63.0 °F - 61.0 °F 93% 30.06 in 3.0 mi Calm Calm - N/A   Clear
7:58 AM 70.0 °F - 66.9 °F 90% 30.06 in 10.0 mi Calm Calm - 0.00 in Rain Light Rain
8:58 AM 75.9 °F - 69.1 °F 79% 30.06 in 10.0 mi Calm Calm - 0.00 in   Clear
9:58 AM 82.0 °F 84.9 °F 68.0 °F 62% 30.06 in 10.0 mi Calm Calm - N/A   Clear
10:58 AM 84.9 °F 87.6 °F 66.9 °F 55% 30.06 in 10.0 mi Variable 5.8 mph - N/A   Clear
11:58 AM 86.0 °F 87.6 °F 64.9 °F 49% 30.05 in 10.0 mi Calm Calm - N/A   Partly Cloudy
12:58 PM 88.0 °F 89.6 °F 64.9 °F 46% 30.02 in 10.0 mi WSW 4.6 mph - N/A   Clear
1:58 PM 88.0 °F 89.6 °F 64.9 °F 46% 30.00 in 10.0 mi Variable 6.9 mph - N/A   Clear
2:58 PM 89.1 °F 91.0 °F 64.9 °F 45% 29.99 in 10.0 mi West 6.9 mph - N/A   Clear
3:58 PM 89.1 °F 91.0 °F 64.9 °F 45% 29.97 in 10.0 mi Variable 4.6 mph - N/A   Clear
4:58 PM 88.0 °F 89.6 °F 64.9 °F 46% 29.98 in 10.0 mi Calm Calm - N/A   Clear
5:58 PM 82.9 °F 86.5 °F 69.1 °F 63% 29.99 in 10.0 mi Calm Calm - N/A   Clear
6:58 PM 75.0 °F - 70.0 °F 84% 30.00 in 10.0 mi Calm Calm - N/A   Clear
7:58 PM 71.1 °F - 68.0 °F 90% 30.01 in 10.0 mi Calm Calm - N/A   Clear
8:58 PM 70.0 °F - 66.9 °F 90% 30.03 in 10.0 mi Calm Calm - N/A   Clear
9:58 PM 72.0 °F - 66.9 °F 84% 30.04 in 10.0 mi Calm Calm - N/A   Clear
10:58 PM 70.0 °F - 66.0 °F 87% 30.05 in 10.0 mi WNW 3.5 mph - N/A   Clear
11:58 PM 71.1 °F - 66.0 °F 84% 30.05 in 10.0 mi NW 3.5 mph - N/A   Clear